Back to catalog

HAIKOU

AliveCommunicationsSSO
NORAD 63987·PAYLOAD·🇨🇳 China
This satellite name has not been confirmed by official sources yet.

Launched May 14, 2025 from Jiuquan Satellite Launch Center

Loading…

Next Passes (next 24 hours)

TLE

FreshSource: Space-Track

Epoch: Sep 14, 2026, 12:53 UTC

1 63987U 25100F   26257.53695877  .00010559  00000-0  47425-3 0  9998
2 63987  97.3561 328.2680 0007640  12.2505 347.8915 15.21314843 74210

Track HAIKOU in real time with AllMySat

Download on the App Store